Regional Weather Roundup
Issued by NWS

Home | Current Version | Previous Version | Text Only | Print | Product List | Glossary On
Versions: 1 2 3 4 5 6 7 8 9 10 11 12 13 14 15 16 17 18 19 20 21 22 23 24 25 26 27 28 29 30 31 32 33 34 35 36 37 38 39 40 41 42 43 44 45 46 47 48 49 50
000
ASUS45 KBOU 241607
RWRCO

WEATHER ROUNDUP FOR COLORADO
NATIONAL WEATHER SERVICE DENVER/BOULDER CO
1000 AM MDT FRI APR 24 2015

NOTE: "FAIR" INDICATES FEW OR NO CLOUDS BELOW 12000 FEET WITH NO
SIGNIFICANT WEATHER AND/OR OBSTRUCTIONS TO VISIBILITY.

COZ001>005-013-030-031-241700-
...NORTHWEST COLORADO...

CITY           SKY/WX    TMP DP  RH WIND       PRES   REMARKS
CRAIG          MOSUNNY   54  31  41 CALM      29.79F
HAYDEN         MOSUNNY   50  27  40 CALM      29.80S
MEEKER         SUNNY     52  29  41 CALM      29.80F
MOUNT WERNER   NOT AVBL
STEAMBOAT SPGS MOSUNNY   47  32  56 W3        29.80F
WALDEN         MOSUNNY   46  23  39 W7        29.82S
$$

COZ006>008-011-241700-
...WEST CENTRAL VALLEYS...

CITY           SKY/WX    TMP DP  RH WIND       PRES   REMARKS
GRAND JUNCTION MOSUNNY   57  30  35 SE13      29.76F
MONTROSE       CLOUDY    55  32  41 N5        29.83F
EAGLE          PTSUNNY   48  27  43 CALM      29.83F
RIFLE            N/A     52  30  43 CALM      29.79F
DELTA          MOSUNNY   56  32  40 E6        29.81F
NUCLA          MOSUNNY   54  28  37 NW3       29.88S
$$

COZ017>023-064>068-241700-
...SOUTHWEST COLORADO...

CITY           SKY/WX    TMP DP  RH WIND       PRES   REMARKS
DURANGO        SUNNY     47  35  63 CALM      29.90F
CORTEZ         SUNNY     55  27  34 SW15      29.88S
PAGOSA SPRINGS CLOUDY    43  35  73 CALM      29.92S THUNDER
TELLURIDE      MOSUNNY   42  20  41 W6        29.92S
WOLF CREEK PAS CLOUDY    27  23  86 SW13      30.01S WCI  16
$$

COZ009-010-012-014-032>034-037-058>063-241700-
...CENTRAL COLORADO...

CITY           SKY/WX    TMP DP  RH WIND       PRES   REMARKS
ASPEN          PTSUNNY   49  22  34 N7        29.82F
BUENA VISTA    PTSUNNY   47  25  41 SE5       29.84F
COPPER MTN     NOT AVBL
BERTHOUD PASS  LGT SNOW  23  16  74 N7G18     29.97R WCI  15
COTTONWOOD PAS PTSUNNY   45  19  36 W5        29.89S
GUNNISON       MOSUNNY   43  27  52 CALM      29.90F
KREMMLING      SUNNY     46  30  53 CALM      29.84F
LEADVILLE      MOSUNNY   38  18  44 NW8       29.88F
MONARCH PASS   PTSUNNY   28  21  74 W22       30.06R WCI  15
SALIDA         PTSUNNY   50  23  34 N5        29.90S
SUNLIGHT       MOSUNNY   36  19  51 CALM      29.96F
WILKERSON PASS MOSUNNY   36  18  48 W6        29.95S
$$

COZ069>075-241700-
...SAN LUIS VALLEY/SANGRE DE CRISTO MOUNTAINS...

CITY           SKY/WX    TMP DP  RH WIND       PRES   REMARKS
ALAMOSA        MOSUNNY   49  24  37 CALM      29.85F
LA VETA PASS   MOSUNNY   34  27  75 S9G18     29.90F WCI  26
SAGUACHE       SUNNY     46  28  49 NW8       29.86F
$$

COZ035-036-038>040-241700-
...NORTHERN COLORADO FRONT RANGE...

CITY           SKY/WX    TMP DP  RH WIND       PRES   REMARKS
DENVER INTL AP MOSUNNY   59  30  33 S6        29.72F
DMNS CITY PARK   N/A     64  26  23 E3        29.71F
AURORA         MOSUNNY   57  26  30 VRB2      29.73F
FRONT RANGE AP MOSUNNY   61  32  33 SE5       29.73F
ERIE MUNI ARPT MOSUNNY   56  36  45 CALM      29.71F
BOULDER MUN AP SUNNY     57  34  41 N5        29.71F
CENTENNIAL     MOSUNNY   58  25  28 NW3       29.73F
BROOMFIELD     MOSUNNY   59  28  31 CALM      29.73F
FORT COLLINS   SUNNY     57  36  44 CALM      29.73F
LONGMONT       SUNNY     63  33  32 NE3       29.72F
$$

COZ041-046-047-076>085-087-088-241700-
...PIKES PEAK/PALMER DIVIDE AND SOUTHERN FOOTHILLS...

CITY           SKY/WX    TMP DP  RH WIND       PRES   REMARKS
COLO. SPRINGS  MOSUNNY   61  18  18 N14       29.74F
A. F. ACADEMY  SUNNY     58  17  20 N10       29.74F
ELLICOTT       SUNNY    N/A N/A N/A N8G16     29.73F
FALCON         SUNNY     57  20  23 NE12G17   29.77F
FORT CARSON    SUNNY     58  29  33 VRB3      29.72F
LIMON          PTSUNNY   57  39  51 NW6       29.71F
MONUMENT HILL  SUNNY     54  21  28 N9        29.77S
TRINIDAD       PTSUNNY   59  27  29 W7        29.74F
$$

COZ042>045-048>051-090-091-241700-
...NORTHEAST COLORADO...

CITY           SKY/WX    TMP DP  RH WIND       PRES   REMARKS
GREELEY ARPT   SUNNY     55  37  50 CALM      29.72F
AKRON          SUNNY     60  44  55 W12       29.69F
BURLINGTON     MOSUNNY   61  47  59 SW6       29.67F
WRAY           SUNNY     63  47  57 W8        29.66F
STERLING       SUNNY     61  46  59 CALM      29.68F
HOLYOKE        SUNNY     61  52  72 NW8       29.67S
FORT MORGAN    MOSUNNY   60  42  51 W6        29.71F
$$

COZ086-089-092>099-241700-
...SOUTHEAST COLORADO...

CITY           SKY/WX    TMP DP  RH WIND       PRES   REMARKS
PUEBLO         MOSUNNY   55  39  54 E3        29.70F
LA JUNTA       MOSUNNY   57  45  64 SW9       29.69F
LAMAR          PTSUNNY   61  50  67 NW6       29.66F
SPRINGFIELD      N/A     62  36  37 NW14      29.68S
$$



USA.gov is the U.S. government's official web portal to all federal, state and local government web resources and services.